2019-038H (44393 NORAD) Tracking and Keplerian Element Data

This shows tracking and keplerian element data for the satellite.

Feedback or suggestion? Click here.




ElementValue
Catalog44393
Name2019-038H
Epoch Orbit187
Epoch Day198.87365433
Epoch Year2019
RAAN160.5882
Inclination97.4905
Eccentricity0.0021463
Argument of Perigee203.4564
Mean Anonmoly156.569
Mean Motion15.12077321
Decay Rate3.11E-06
L11 44393U 19038H 19198.87365433 .00000311 00000-0 21759-4 0 9994
L22 44393 97.4905 160.5882 0021463 203.4564 156.5690 15.12077321 1876

Live tracking and technical data element details for 2019-038H (NORAD 44393). 2019-038H can be tracked NOW for your location showing map with azimuth and elevation plus other details from your city location.

Track the satellite on the map from your city or location and see movement details for azimuth, elevation, latitude, longitude, range, height, and movement on the map or in text.







IsCatalogInMostPopularTable: catalog: 44393, numindb: 3
Update: records affected: 1



GetName: 44393 2019-038H

Hit Count: updated at: Fri, 19 Jul 2019 08:37:12 GMT